Regional Weather Roundup
Issued by NWS Cleveland, OH

Home | Current Version | Previous Version | Graphics & Text | Print | Product List | Glossary On
Versions: 1 2 3 4 5 6 7 8 9 10 11 12 13 14 15 16 17 18 19 20 21 22 23 24 25 26 27 28 29 30 31 32 33 34 35 36 37 38 39 40 41 42 43 44 45 46 47 48 49 50
709
ASUS41 KCLE 201212
RWRCLE
OHIO REGIONAL WEATHER ROUNDUP
NATIONAL WEATHER SERVICE WILMINGTON, OH
700 AM EST FRI JAN 20 2017

NOTE: "FAIR" INDICATES FEW OR NO CLOUDS BELOW 12,000 FEET WITH NO
SIGNIFICANT WEATHER AND/OR OBSTRUCTIONS TO VISIBILITY.

OHZ001>008-015>018-024>027-034-035-043-044-201300-
   NORTHWEST OHIO

CITY           SKY/WX    TMP DP  RH WIND       PRES   REMARKS
DEFIANCE       LGT RAIN  35  34  96 E7        29.63S FOG     WCI  29
FINDLAY        LGT RAIN  41  38  89 E7        29.61R FOG
TOLEDO EXPRESS RAIN      35  35 100 NE13      29.64S FOG     WCI  26
TOLEDO EXEC    RAIN      36  36 100 NE8       29.65S FOG
LIMA           LGT RAIN  42  42 100 SE9       29.60R FOG
$$

OHZ009>014-019>023-028>033-038-089-201300-
   NORTHEAST OHIO

CITY           SKY/WX    TMP DP  RH WIND       PRES   REMARKS
CLE-HOPKINS    LGT RAIN  42  37  82 SE6       29.71F
CLE-LAKEFRONT  RAIN      40  36  86 SE7       29.69F FOG
CUY CO. ARPT   LGT RAIN  41  37  87 SE12      29.71
LORAIN-ELYRIA  RAIN      39  35  86 SE10      29.67F FOG
ASHTABULA      CLOUDY    37  33  85 SE9       29.73F
AKRON-CANTON   LGT RAIN  40  36  86 SE10      29.69F FOG
WOOSTER        LGT RAIN  39  37  92 SE12      29.68F FOG
MANSFIELD      LGT RAIN  41  40  96 SE10      29.63F FOG
YOUNGSTOWN     LGT RAIN  37  33  85 E12       29.72F
$$

OHZ042-051>053-060>062-070>072-077>081-201300-
  SOUTHWEST OHIO

CITY           SKY/WX    TMP DP  RH WIND       PRES   REMARKS
CINC-COVINGTON LGT RAIN  53  52  96 SW10      29.64R FOG
CINC-LUNKEN    LGT RAIN  53  53 100 SW9       29.65R
HAMILTON       RAIN      53  52  96 SW8       29.63S FOG
DAYTON         LGT RAIN  46  43  89 S9        29.61S VSB 1
WRIGHT-PAT AFB LGT RAIN  46  46 100 CALM      29.62R
DAYTON GENERAL LGT RAIN  51  50  96 S8        29.61R
WILMINGTON     LGT RAIN  48  48 100 S13       29.63R FOG
$$

OHZ036-037-039>041-045>050-054>059-063>069-073>076-082>088-201300-
  CENTRAL AND SOUTHEAST OHIO

CITY           SKY/WX    TMP DP  RH WIND       PRES   REMARKS
COLUMBUS       RAIN      45  42  89 SE10      29.64S FOG
OSU AIRPORT    LGT RAIN  43  43 100 SE9       29.63S FOG
BOLTON FIELD   RAIN      43  43 100 S5        29.65R
RICKENBACK AFB LGT RAIN  43  43 100 S5        29.64S
NEWARK         LGT RAIN  42  41  96 CALM      29.66S FOG
MARION         LGT RAIN  43  41  93 S13       29.63R FOG
LANCASTER      LGT RAIN  45  43  93 SE8       29.66S FOG
ZANESVILLE     RAIN      42  40  92 SE7       29.67S FOG
NEW PHILLY     LGT RAIN  40  39  97 CALM      29.70F FOG
$$




USA.gov is the U.S. government's official web portal to all federal, state and local government web resources and services.